| time (UTC) | temp F | wind direction | speed knots | gust knots | rain 1hr in | rain 24hr in | rain mn in | humidity % | barometer mb |
| 20260507231532 | 52 | 232 | 0.0 | 0.0 | 0.00 | 1.15 | 1.15 | 99 | 1001.9 |
| 20260507230031 | 52 | 212 | 0.0 | 0.0 | 0.00 | 1.15 | 1.15 | 99 | 1002.0 |
| 20260507224530 | 52 | 216 | 1.7 | 5.2 | 0.00 | 1.15 | 1.15 | 99 | 1002.1 |
| 20260507223030 | 51 | 229 | 2.6 | 7.0 | 0.00 | 1.15 | 1.15 | 99 | 1002.1 |
| 20260507221533 | 51 | 217 | 6.1 | 13.0 | 0.00 | 1.15 | 1.15 | 99 | 1002.2 |
| 20260507220036 | 52 | 217 | 6.1 | 10.4 | 0.00 | 1.15 | 1.15 | 99 | 1002.2 |
| 20260507214527 | 52 | 261 | 5.2 | 7.8 | 0.00 | 1.15 | 1.15 | 99 | 1001.8 |
| 20260507213031 | 52 | 248 | 6.1 | 13.9 | 0.00 | 1.15 | 1.15 | 99 | 1001.7 |
| 20260507211533 | 52 | 216 | 7.8 | 14.8 | 0.00 | 1.15 | 1.15 | 98 | 1002.0 |
| 20260507210030 | 53 | 207 | 7.8 | 16.5 | 0.01 | 1.15 | 1.15 | 99 | 1002.4 |
| 20260507204524 | 53 | 230 | 7.8 | 13.0 | 0.02 | 1.15 | 1.15 | 99 | 1002.1 |
| 20260507203026 | 52 | 197 | 6.1 | 10.4 | 0.03 | 1.15 | 1.15 | 99 | 1001.7 |
| 20260507201523 | 52 | 178 | 7.0 | 14.8 | 0.06 | 1.15 | 1.15 | 99 | 1001.3 |
| 20260507200022 | 52 | 152 | 4.3 | 12.2 | 0.09 | 1.14 | 1.14 | 99 | 1001.7 |
| 20260507194530 | 52 | 185 | 4.3 | 9.6 | 0.13 | 1.13 | 1.13 | 99 | 1002.7 |
| 20260507193016 | 52 | 226 | 6.1 | 12.2 | 0.23 | 1.12 | 1.12 | 99 | 1003.1 |
| 20260507191514 | 51 | 196 | 4.3 | 7.0 | 0.31 | 1.10 | 1.10 | 99 | 1003.3 |
| 20260507190019 | 51 | 167 | 3.5 | 7.0 | 0.34 | 1.05 | 1.05 | 99 | 1003.7 |
| 20260507184509 | 51 | 202 | 2.6 | 5.2 | 0.39 | 1.00 | 1.00 | 98 | 1004.1 |
| 20260507183011 | 51 | 198 | 3.5 | 9.6 | 0.44 | 0.89 | 0.89 | 98 | 1004.4 |
| 20260507181508 | 51 | 175 | 6.1 | 13.9 | 0.56 | 0.79 | 0.79 | 98 | 1004.7 |
| 20260507180006 | 52 | 227 | 5.2 | 11.3 | 0.54 | 0.70 | 0.70 | 98 | 1005.0 |
| 20260507174510 | 52 | 198 | 5.2 | 15.6 | 0.49 | 0.61 | 0.61 | 98 | 1004.9 |
| 20260507173016 | 52 | 179 | 9.6 | 18.2 | 0.35 | 0.45 | 0.45 | 98 | 1005.1 |
| 20260507171503 | 53 | 180 | 9.6 | 19.1 | 0.15 | 0.22 | 0.22 | 98 | 1004.6 |
| 20260507170005 | 54 | 148 | 9.6 | 20.0 | 0.13 | 0.16 | 0.16 | 98 | 1004.1 |
| 20260507164502 | 53 | 183 | 7.0 | 19.1 | 0.09 | 0.12 | 0.12 | 98 | 1004.5 |
| 20260507163100 | 53 | 205 | 11.3 | 17.4 | 0.08 | 0.11 | 0.11 | 98 | 1004.8 |
| 20260507161600 | 54 | 215 | 7.0 | 16.5 | 0.04 | 0.07 | 0.07 | 98 | 1005.1 |
| 20260507160054 | 54 | 179 | 7.0 | 19.1 | 0.01 | 0.04 | 0.04 | 97 | 1005.8 |
| 20260507154557 | 55 | 158 | 8.7 | 18.2 | 0.00 | 0.03 | 0.03 | 96 | 1006.1 |
| 20260507153055 | 54 | 171 | 8.7 | 19.1 | 0.00 | 0.03 | 0.03 | 96 | 1006.5 |
| 20260507151549 | 54 | 231 | 8.7 | 19.1 | 0.00 | 0.03 | 0.03 | 96 | 1007.1 |
| 20260507150047 | 55 | 211 | 9.6 | 28.7 | 0.00 | 0.03 | 0.03 | 95 | 1007.6 |
| 20260507144544 | 55 | 214 | 7.8 | 18.2 | 0.00 | 0.03 | 0.03 | 95 | 1007.8 |
| 20260507143047 | 56 | 219 | 13.0 | 22.6 | 0.00 | 0.03 | 0.03 | 95 | 1007.8 |
| 20260507141543 | 56 | 169 | 9.6 | 25.2 | 0.00 | 0.03 | 0.03 | 95 | 1008.1 |
| 20260507140043 | 55 | 165 | 7.8 | 19.1 | 0.00 | 0.03 | 0.03 | 96 | 1008.4 |
| 20260507134539 | 56 | 120 | 8.7 | 17.4 | 0.00 | 0.03 | 0.03 | 96 | 1008.8 |
| 20260507133035 | 56 | 193 | 7.8 | 20.9 | 0.00 | 0.03 | 0.03 | 96 | 1009.1 |
| 20260507131538 | 56 | 159 | 6.1 | 22.6 | 0.00 | 0.03 | 0.03 | 96 | 1009.1 |
| 20260507130039 | 55 | 201 | 8.7 | 16.5 | 0.00 | 0.03 | 0.03 | 96 | 1009.3 |
| 20260507124539 | 56 | 196 | 6.1 | 19.1 | 0.00 | 0.03 | 0.03 | 96 | 1009.3 |
| 20260507123030 | 56 | 219 | 10.4 | 20.9 | 0.00 | 0.03 | 0.03 | 97 | 1009.6 |
| 20260507121528 | 55 | 165 | 7.0 | 16.5 | 0.01 | 0.03 | 0.03 | 97 | 1009.6 |
| 20260507120025 | 55 | 161 | 7.8 | 18.2 | 0.03 | 0.03 | 0.03 | 98 | 1010.0 |
| 20260507114532 | 54 | 173 | 5.2 | 19.1 | 0.03 | 0.03 | 0.03 | 98 | 1010.2 |
| 20260507113039 | 54 | 199 | 10.4 | 16.5 | 0.03 | 0.03 | 0.03 | 98 | 1010.2 |
| 20260507111525 | 53 | 164 | 7.8 | 20.9 | 0.02 | 0.02 | 0.02 | 97 | 1010.3 |
| 20260507110020 | 54 | 153 | 7.8 | 18.2 | 0.00 | 0.00 | 0.00 | 96 | 1010.2 |
| 20260507104519 | 54 | 178 | 3.5 | 11.3 | 0.00 | 0.00 | 0.00 | 97 | 1010.4 |
| 20260507103021 | 54 | 190 | 6.1 | 17.4 | 0.00 | 0.00 | 0.00 | 97 | 1010.7 |
| 20260507101519 | 54 | 149 | 7.8 | 18.2 | 0.00 | 0.00 | 0.00 | 98 | 1010.6 |
| 20260507100016 | 54 | 215 | 5.2 | 14.8 | 0.00 | 0.00 | 0.00 | 97 | 1010.8 |
| 20260507094517 | 54 | 190 | 9.6 | 22.6 | 0.00 | 0.00 | 0.00 | 97 | 1010.3 |
| 20260507093014 | 54 | 197 | 13.0 | 21.7 | 0.00 | 0.00 | 0.00 | 97 | 1011.0 |
| 20260507091513 | 54 | 196 | 11.3 | 20.9 | 0.00 | 0.00 | 0.00 | 98 | 1011.0 |
| 20260507090013 | 54 | 113 | 8.7 | 21.7 | 0.00 | 0.00 | 0.00 | 99 | 1011.1 |
| 20260507084508 | 53 | 182 | 6.1 | 13.9 | 0.00 | 0.00 | 0.00 | 99 | 1011.3 |
| 20260507083006 | 52 | 194 | 3.5 | 14.8 | 0.00 | 0.00 | 0.00 | 99 | 1011.2 |
| 20260507081506 | 52 | 182 | 8.7 | 14.8 | 0.00 | 0.00 | 0.00 | 99 | 1011.4 |
| 20260507074603 | 51 | 159 | 5.2 | 9.6 | 0.00 | 0.00 | 0.00 | 99 | 1011.9 |
| 20260507073101 | 51 | 159 | 5.2 | 13.0 | 0.00 | 0.00 | 0.00 | 99 | 1012.0 |
| 20260507071553 | 51 | 223 | 7.8 | 14.8 | 0.00 | 0.00 | 0.00 | 99 | 1012.5 |
| 20260507070050 | 51 | 194 | 3.5 | 7.0 | 0.00 | 0.00 | 0.00 | 98 | 1013.1 |
| 20260507064550 | 50 | 222 | 4.3 | 9.6 | 0.00 | 0.00 | 0.00 | 98 | 1013.4 |
| 20260507063047 | 50 | 200 | 1.7 | 7.0 | 0.00 | 0.00 | 0.00 | 98 | 1013.6 |
| 20260507061546 | 51 | 191 | 0.0 | 4.3 | 0.00 | 0.00 | 0.00 | 98 | 1013.8 |
| 20260507060058 | 51 | 192 | 0.9 | 10.4 | 0.00 | 0.00 | 0.00 | 98 | 1013.6 |
| 20260507054543 | 50 | 185 | 4.3 | 9.6 | 0.00 | 0.00 | 0.00 | 98 | 1013.7 |
| 20260507053042 | 50 | 227 | 2.6 | 5.2 | 0.00 | 0.00 | 0.00 | 98 | 1014.0 |
| 20260507051540 | 51 | 246 | 3.5 | 11.3 | 0.00 | 0.00 | 0.00 | 98 | 1014.5 |
| 20260507050041 | 51 | 217 | 3.5 | 9.6 | 0.00 | 0.00 | 0.00 | 98 | 1014.7 |
| 20260507044638 | 51 | 219 | 5.2 | 13.0 | 0.00 | 0.00 | 0.00 | 98 | 1015.0 |
| 20260507043041 | 51 | 172 | 4.3 | 12.2 | 0.00 | 0.00 | 0.00 | 98 | 1015.2 |
| 20260507041530 | 51 | 215 | 7.8 | 13.0 | 0.00 | 0.00 | 0.00 | 98 | 1015.7 |
| 20260507040026 | 51 | 225 | 7.0 | 14.8 | 0.00 | 0.00 | 0.00 | 98 | 1016.0 |
| 20260507034532 | 51 | 217 | 5.2 | 12.2 | 0.00 | 0.00 | 0.00 | 98 | 1016.2 |
| 20260507033023 | 51 | 210 | 5.2 | 10.4 | 0.00 | 0.00 | 0.00 | 98 | 1016.2 |
| 20260507031521 | 51 | 211 | 5.2 | 11.3 | 0.00 | 0.00 | 0.00 | 98 | 1016.6 |
| 20260507030018 | 50 | 208 | 4.3 | 11.3 | 0.00 | 0.00 | 0.00 | 98 | 1016.8 |
| 20260507024519 | 50 | 205 | 6.1 | 13.0 | 0.00 | 0.00 | 0.00 | 98 | 1016.9 |
| 20260507023016 | 50 | 220 | 7.0 | 13.9 | 0.00 | 0.00 | 0.00 | 97 | 1017.0 |
| 20260507021515 | 49 | 200 | 8.7 | 14.8 | 0.00 | 0.00 | 0.00 | 97 | 1017.4 |
| 20260507020018 | 49 | 211 | 9.6 | 16.5 | 0.00 | 0.00 | 0.00 | 96 | 1017.4 |
| 20260507014510 | 50 | 225 | 5.2 | 12.2 | 0.00 | 0.00 | 0.00 | 96 | 1017.6 |
| 20260507013013 | 50 | 190 | 4.3 | 10.4 | 0.00 | 0.00 | 0.00 | 96 | 1017.6 |
| 20260507011511 | 50 | 206 | 6.1 | 14.8 | 0.00 | 0.00 | 0.00 | 95 | 1017.7 |
| 20260507010006 | 50 | 209 | 6.1 | 11.3 | 0.00 | 0.00 | 0.00 | 95 | 1017.8 |
| 20260507004504 | 51 | 193 | 5.2 | 11.3 | 0.00 | 0.00 | 0.00 | 95 | 1018.0 |
| 20260507003004 | 51 | 227 | 6.1 | 11.3 | 0.00 | 0.00 | 0.00 | 95 | 1018.1 |
| 20260507001505 | 51 | 217 | 7.8 | 19.1 | 0.00 | 0.00 | 0.00 | 95 | 1018.0 |
| 20260506234600 | 52 | 163 | 5.2 | 14.8 | 0.00 | 0.00 | 0.00 | 94 | 1018.1 |
| 20260506233101 | 52 | 209 | 7.0 | 11.3 | 0.00 | 0.00 | 0.00 | 92 | 1018.0 |